Weather History for KPBH - February, 2013

Change the Weather History Date:

Thursday, February 28, 2013

  Actual Average Record
Temperature  
Mean Temperature 24 °F -  
Max Temperature 30 °F 27 °F 46 °F (2004)
Min Temperature 19 °F 11 °F -26 °F (2014)
Degree Days  
Heating Degree Days 40    
Moisture  
Dew Point 20 °F    
Average Humidity 80    
Maximum Humidity 93    
Minimum Humidity 69    
Precipitation  
Precipitation 0.00 in - - ()
Sea Level Pressure  
Sea Level Pressure 30.07 in    
Wind  
Wind Speed 13 mph (NNE)    
Max Wind Speed 22 mph    
Max Gust Speed 29 mph    
Visibility 10 miles    
Events Snow    
Averages and records for this station are not official NWS values.
T = Trace of Precipitation, MM = Missing Value Source: NWS Daily Summary

Daily Weather History Graph

Daily Weather History Graph

Search for Another Location

Airport or City:

Trip Planner

Search our weather history database for the weather conditions in past years. The results will help you decide how hot, cold, wet, or windy it might be!

Date:

Astronomy

Feb. 28, 2013 Rise Set
Actual Time 6:41 AM CST 5:47 PM CST
Civil Twilight 6:11 AM CST 6:17 PM CST
Nautical Twilight 5:37 AM CST 6:51 PM CST
Astronomical Twilight 5:02 AM CST 7:26 PM CST
Moon 9:28 PM CST (2/28) 7:39 AM CST (2/28)
Length of Visible Light 12h 05m
Length of Day
11h 05m
Waning Gibbous, 90% of the Moon is Illuminated
Feb 28
Waning Gibbous
Mar 4
Last Quarter
Mar 11
New
Mar 19
First Quarter
Mar 27
Full

Hourly Weather History & Observations

Time (CST) Temp. Windchill Dew Point Humidity Pressure Visibility Wind Dir Wind Speed Gust Speed Precip Events Conditions
12:15 AM 30.2 °F 21.9 °F 28.4 °F 93% 29.92 in 4.0 mi North 9.2 mph - N/A Snow Light Snow
12:35 AM 30.2 °F 19.3 °F 26.6 °F 86% 29.92 in 7.0 mi North 15.0 mph 21.9 mph N/A   Overcast
12:55 AM 30.2 °F 18.5 °F 26.6 °F 86% 29.93 in 7.0 mi North 17.3 mph 25.3 mph N/A   Overcast
1:15 AM 30.2 °F 19.8 °F 26.6 °F 86% 29.93 in 10.0 mi NNE 13.8 mph 26.5 mph N/A   Overcast
1:35 AM 30.2 °F 19.8 °F 26.6 °F 86% 29.94 in 10.0 mi NNE 13.8 mph 24.2 mph N/A   Overcast
1:55 AM 30.2 °F 18.9 °F 26.6 °F 86% 29.94 in 10.0 mi North 16.1 mph 21.9 mph N/A   Overcast
2:15 AM 30.2 °F 23.4 °F 26.6 °F 86% 29.94 in 10.0 mi North 6.9 mph 19.6 mph N/A   Overcast
2:35 AM 28.4 °F 19.1 °F 26.6 °F 93% 29.94 in 10.0 mi North 10.4 mph 18.4 mph N/A   Overcast
2:55 AM 28.4 °F 18.5 °F 26.6 °F 93% 29.94 in 10.0 mi NNE 11.5 mph 18.4 mph N/A   Overcast
3:15 AM 28.4 °F 18.0 °F 26.6 °F 93% 29.95 in 10.0 mi North 12.7 mph 16.1 mph N/A   Overcast
3:55 AM 28.4 °F 18.0 °F 24.8 °F 86% 29.95 in 10.0 mi North 12.7 mph 23.0 mph N/A   Overcast
4:15 AM 28.4 °F 18.0 °F 24.8 °F 86% 29.96 in 10.0 mi North 12.7 mph 20.7 mph N/A   Overcast
4:35 AM 28.4 °F 18.0 °F 24.8 °F 86% 29.97 in 10.0 mi North 12.7 mph 20.7 mph N/A   Overcast
4:55 AM 28.4 °F 18.0 °F 24.8 °F 86% 29.97 in 10.0 mi North 12.7 mph 20.7 mph N/A   Overcast
5:15 AM 28.4 °F 18.0 °F 24.8 °F 86% 29.98 in 10.0 mi North 12.7 mph 25.3 mph N/A   Overcast
5:35 AM 28.4 °F 17.5 °F 23.0 °F 80% 29.99 in 10.0 mi North 13.8 mph 20.7 mph N/A   Overcast
5:55 AM 28.4 °F 18.0 °F 23.0 °F 80% 30.00 in 10.0 mi North 12.7 mph 18.4 mph N/A   Overcast
6:15 AM 28.4 °F 14.7 °F 23.0 °F 80% 30.00 in 10.0 mi NNE 21.9 mph 28.8 mph N/A   Overcast
6:35 AM 28.4 °F 16.2 °F 21.2 °F 74% 30.01 in 10.0 mi NNE 17.3 mph 24.2 mph N/A   Overcast
6:55 AM 28.4 °F 19.1 °F 21.2 °F 74% 30.02 in 10.0 mi North 10.4 mph 25.3 mph N/A   Overcast
7:15 AM 26.6 °F 12.7 °F 21.2 °F 80% 30.02 in 10.0 mi North 20.7 mph 27.6 mph N/A   Overcast
7:35 AM 26.6 °F 13.8 °F 21.2 °F 80% 30.03 in 10.0 mi NNE 17.3 mph 26.5 mph N/A   Overcast
7:55 AM 26.6 °F 15.7 °F 21.2 °F 80% 30.04 in 10.0 mi NNE 12.7 mph 23.0 mph N/A   Overcast
8:15 AM 26.6 °F 15.7 °F 21.2 °F 80% 30.04 in 10.0 mi NNE 12.7 mph 23.0 mph N/A   Overcast
8:35 AM 26.6 °F 13.8 °F 21.2 °F 80% 30.04 in 10.0 mi NNE 17.3 mph - N/A   Overcast
8:55 AM 26.6 °F 16.2 °F 21.2 °F 80% 30.05 in 10.0 mi North 11.5 mph - N/A   Overcast
9:15 AM 26.6 °F 15.2 °F 21.2 °F 80% 30.05 in 10.0 mi North 13.8 mph 19.6 mph N/A   Overcast
9:35 AM 26.6 °F 14.3 °F 21.2 °F 80% 30.05 in 10.0 mi NNE 16.1 mph 20.7 mph N/A   Overcast
9:55 AM 26.6 °F 14.7 °F 21.2 °F 80% 30.05 in 10.0 mi NNE 15.0 mph - N/A   Overcast
10:15 AM 26.6 °F 16.2 °F 21.2 °F 80% 30.06 in 10.0 mi North 11.5 mph 21.9 mph N/A   Overcast
10:35 AM 26.6 °F 13.4 °F 21.2 °F 80% 30.06 in 7.0 mi NNE 18.4 mph 26.5 mph N/A   Overcast
10:55 AM 26.6 °F 13.8 °F 21.2 °F 80% 30.07 in 10.0 mi NNE 17.3 mph - N/A   Overcast
11:15 AM 26.6 °F 14.7 °F 21.2 °F 80% 30.08 in 10.0 mi North 15.0 mph 20.7 mph N/A   Overcast
11:35 AM 26.6 °F 15.7 °F 21.2 °F 80% 30.08 in 10.0 mi North 12.7 mph 20.7 mph N/A   Overcast
11:55 AM 26.6 °F 14.3 °F 21.2 °F 80% 30.08 in 10.0 mi NNE 16.1 mph 23.0 mph N/A   Overcast
12:15 PM 26.6 °F 15.2 °F 21.2 °F 80% 30.08 in 10.0 mi NNE 13.8 mph 20.7 mph N/A   Overcast
12:35 PM 26.6 °F 16.2 °F 19.4 °F 74% 30.08 in 10.0 mi NNE 11.5 mph 20.7 mph N/A   Overcast
12:55 PM 26.6 °F 14.7 °F 19.4 °F 74% 30.08 in 10.0 mi NE 15.0 mph 20.7 mph N/A   Overcast
1:15 PM 26.6 °F 15.2 °F 19.4 °F 74% 30.09 in 10.0 mi NNE 13.8 mph 21.9 mph N/A   Overcast
1:35 PM 26.6 °F 16.2 °F 19.4 °F 74% 30.09 in 10.0 mi NNE 11.5 mph - N/A   Overcast
1:55 PM 26.6 °F 15.7 °F 19.4 °F 74% 30.09 in 10.0 mi NNE 12.7 mph 20.7 mph N/A   Overcast
2:15 PM 26.6 °F 16.2 °F 19.4 °F 74% 30.09 in 10.0 mi North 11.5 mph 17.3 mph N/A   Overcast
2:35 PM 26.6 °F 16.8 °F 19.4 °F 74% 30.09 in 10.0 mi North 10.4 mph 17.3 mph N/A   Overcast
2:55 PM 26.6 °F 15.2 °F 19.4 °F 74% 30.10 in 10.0 mi NNE 13.8 mph - N/A   Overcast
3:15 PM 26.6 °F 14.3 °F 17.6 °F 69% 30.10 in 10.0 mi North 16.1 mph 21.9 mph N/A   Overcast
3:35 PM 26.6 °F 15.7 °F 17.6 °F 69% 30.11 in 10.0 mi NNE 12.7 mph - N/A   Overcast
3:55 PM 26.6 °F 14.7 °F 17.6 °F 69% 30.12 in 10.0 mi NNE 15.0 mph - N/A   Overcast
4:15 PM 26.6 °F 13.8 °F 17.6 °F 69% 30.12 in 10.0 mi NNE 17.3 mph 23.0 mph N/A   Overcast
4:35 PM 24.8 °F 14.0 °F 17.6 °F 74% 30.13 in 10.0 mi NNE 11.5 mph 21.9 mph N/A   Overcast
4:55 PM 24.8 °F 12.4 °F 17.6 °F 74% 30.13 in 10.0 mi NNE 15.0 mph 21.9 mph N/A   Overcast
5:15 PM 24.8 °F 14.0 °F 17.6 °F 74% 30.13 in 10.0 mi North 11.5 mph 18.4 mph N/A   Overcast
5:35 PM 24.8 °F 11.9 °F 15.8 °F 69% 30.14 in 10.0 mi NNE 16.1 mph 24.2 mph N/A   Overcast
5:55 PM 23.0 °F 9.2 °F 15.8 °F 74% 30.14 in 10.0 mi NNE 17.3 mph 23.0 mph N/A   Overcast
6:15 PM 23.0 °F 11.1 °F 17.6 °F 80% 30.15 in 10.0 mi NNE 12.7 mph 23.0 mph N/A   Overcast
6:35 PM 23.0 °F 11.1 °F 17.6 °F 80% 30.16 in 10.0 mi NNE 12.7 mph 17.3 mph N/A   Overcast
6:55 PM 23.0 °F 9.6 °F 17.6 °F 80% 30.16 in 10.0 mi North 16.1 mph 23.0 mph N/A   Overcast
7:15 PM 23.0 °F 10.6 °F 17.6 °F 80% 30.17 in 10.0 mi NNE 13.8 mph - N/A   Overcast
7:35 PM 23.0 °F 11.7 °F 17.6 °F 80% 30.17 in 10.0 mi NNE 11.5 mph 17.3 mph N/A   Overcast
7:55 PM 23.0 °F 11.1 °F 17.6 °F 80% 30.17 in 10.0 mi NNE 12.7 mph 21.9 mph N/A   Overcast
8:15 PM 23.0 °F 11.1 °F 17.6 °F 80% 30.17 in 10.0 mi NNE 12.7 mph 19.6 mph N/A   Overcast
8:35 PM 23.0 °F 10.6 °F 17.6 °F 80% 30.17 in 10.0 mi NE 13.8 mph 26.5 mph N/A   Overcast
8:55 PM 23.0 °F 8.3 °F 17.6 °F 80% 30.18 in 10.0 mi NE 19.6 mph 25.3 mph N/A   Overcast
9:15 PM 23.0 °F 9.2 °F 15.8 °F 74% 30.18 in 10.0 mi NE 17.3 mph - N/A   Overcast
9:35 PM 21.2 °F 7.3 °F 15.8 °F 80% 30.19 in 10.0 mi NE 16.1 mph 27.6 mph N/A   Overcast
9:55 PM 21.2 °F 6.8 °F 15.8 °F 80% 30.19 in 10.0 mi NE 17.3 mph 27.6 mph N/A   Overcast
10:15 PM 21.2 °F 8.9 °F 15.8 °F 80% 30.19 in 10.0 mi NE 12.7 mph 20.7 mph N/A   Overcast
10:35 PM 21.2 °F 9.5 °F 15.8 °F 80% 30.19 in 10.0 mi NE 11.5 mph - N/A   Overcast
10:55 PM 21.2 °F 10.9 °F 15.8 °F 80% 30.20 in 10.0 mi NE 9.2 mph 16.1 mph N/A   Scattered Clouds
11:35 PM 19.4 °F 10.4 °F 14.0 °F 80% 30.19 in 10.0 mi NE 6.9 mph - N/A   Clear
11:55 PM 19.4 °F 11.5 °F 14.0 °F 80% 30.19 in 10.0 mi NE 5.8 mph - N/A   Scattered Clouds